PBO Station Position Time Series. Reference Frame : NAM14
Format Version,1.1.0
4-character ID,P378
Station name,LebanonAirOR2007
Begin Date, 2007-06-28
End Date, 2019-10-07
Release Date, 2019-10-08
Reference position, 44.5349824730 North Latitude, -122.9308817201 East Longitude, 83.12743 meters elevation,
Date, North (mm), East (mm), Vertical (mm), North Std. Deviation (mm), East Std. Deviation (mm),              Vertical Std. Deviation (mm), Quality,
2007-06-28,0.00, 0.00, 0.00, 2.11, 1.54, 6.93, repro,
2007-06-29,1.80, 1.42, -7.17, 2.13, 1.54, 6.98, repro,
2007-06-30,0.10, 0.93, -1.52, 2.11, 1.53, 6.93, repro,
2007-07-01,1.48, 0.31, 5.14, 2.11, 1.53, 6.92, repro,
2007-07-02,2.48, -0.75, 3.05, 2.10, 1.53, 6.90, repro,
2007-07-03,1.49, 0.01, 0.35, 2.10, 1.53, 6.90, repro,
2007-07-04,1.28, 0.33, 0.33, 2.13, 1.53, 6.97, repro,
2007-07-05,0.98, 0.39, -5.46, 2.11, 1.53, 6.89, repro,
2007-07-06,1.43, -0.12, -1.96, 2.11, 1.53, 6.93, repro,
2007-07-07,2.00, 0.74, -5.66, 2.12, 1.53, 6.90, repro,
2007-07-08,0.77, 0.80, -3.74, 2.10, 1.53, 6.83, repro,
2007-07-09,1.01, 1.77, -0.41, 2.12, 1.54, 6.94, repro,
2007-07-10,-1.22, 1.37, -1.50, 2.11, 1.53, 6.91, repro,
2007-07-11,1.30, -1.03, 5.07, 2.11, 1.53, 6.91, repro,
2007-07-12,1.08, 1.34, 2.56, 2.14, 1.54, 6.95, repro,
2007-07-13,0.84, -0.32, 3.64, 2.15, 1.60, 7.10, repro,
2007-07-14,0.14, 0.35, 4.57, 2.14, 1.59, 7.10, repro,
2007-07-15,1.24, 1.85, 7.09, 2.11, 1.54, 6.93, repro,
2007-07-16,0.66, 0.33, 2.92, 2.11, 1.53, 6.90, repro,
2007-07-17,0.17, 0.63, 5.19, 2.11, 1.54, 6.91, repro,
2007-07-18,0.40, -0.41, 1.22, 2.15, 1.59, 7.06, repro,
2007-07-19,0.42, 1.06, 0.89, 2.10, 1.53, 6.87, repro,
2007-07-20,0.53, 0.29, 11.90, 2.15, 1.59, 7.08, repro,
2007-07-21,-0.52, -1.13, 6.22, 2.12, 1.54, 6.95, repro,
2007-07-22,-0.20, 1.14, -0.52, 2.12, 1.53, 6.93, repro,
2007-07-23,1.66, 0.35, -1.97, 2.12, 1.55, 6.97, repro,
2007-07-24,0.43, 0.19, 12.73, 2.11, 1.53, 6.88, repro,
2007-07-25,1.79, 1.00, 3.73, 2.11, 1.53, 6.87, repro,
2007-07-26,-0.96, -0.17, 3.82, 2.16, 1.58, 7.00, repro,
2007-07-27,1.05, 0.31, 6.21, 2.11, 1.53, 6.90, repro,
2007-07-28,1.21, 0.12, 2.83, 2.15, 1.55, 7.02, repro,
2007-07-29,-0.84, 1.60, 7.94, 2.11, 1.53, 6.88, repro,
2007-07-30,1.13, 0.25, 6.49, 2.18, 1.64, 7.20, repro,
2007-07-31,1.26, 0.95, 3.73, 2.10, 1.53, 6.86, repro,
2007-08-01,0.04, 0.57, 7.82, 2.13, 1.54, 6.99, repro,
2007-08-02,0.00, 0.57, 11.66, 2.14, 1.54, 7.03, repro,
2007-08-03,1.12, 0.23, 7.40, 2.12, 1.53, 6.92, repro,
2007-08-04,1.62, 0.83, 11.55, 2.10, 1.52, 6.85, repro,
2007-08-05,0.74, 0.25, 9.75, 2.10, 1.52, 6.86, repro,
2007-08-06,1.58, -0.61, 14.53, 2.16, 1.58, 7.11, repro,
2007-08-07,1.23, 0.06, 11.88, 2.16, 1.59, 7.14, repro,
2007-08-08,2.22, -0.15, 10.31, 2.12, 1.54, 7.00, repro,
2007-08-09,-0.04, 0.29, 7.39, 2.11, 1.52, 6.87, repro,
2007-08-10,0.13, 0.21, 10.68, 2.09, 1.51, 6.82, repro,
2007-08-11,1.49, -0.35, 10.29, 2.10, 1.53, 6.91, repro,
2007-08-12,0.12, 0.66, 5.71, 2.13, 1.54, 7.00, repro,
2007-08-13,0.18, 0.28, 5.67, 2.12, 1.53, 6.96, repro,
2007-08-14,0.37, -0.26, 6.42, 2.26, 1.64, 7.38, repro,
2007-08-15,2.11, -0.19, 8.99, 2.24, 1.65, 7.33, repro,
2007-08-16,0.35, 0.45, 4.92, 2.20, 1.59, 7.16, repro,
2007-08-17,2.08, -0.20, 9.55, 2.22, 1.62, 7.30, repro,
2007-08-18,1.82, 0.75, 12.18, 2.28, 1.64, 7.51, repro,
2007-08-19,0.15, 0.25, 13.14, 2.26, 1.63, 7.45, repro,
2007-08-20,-0.26, -0.01, 7.95, 2.22, 1.58, 7.18, repro,
2007-08-21,1.94, 0.47, 9.97, 2.20, 1.57, 7.11, repro,
2007-08-22,1.26, -0.22, 7.69, 2.21, 1.58, 7.12, repro,
2007-08-23,-0.14, -0.71, 17.75, 2.17, 1.55, 7.08, repro,
2007-08-24,1.11, 1.23, 6.11, 2.29, 1.63, 7.40, repro,
2007-08-25,1.69, -0.30, 6.32, 2.22, 1.61, 7.30, repro,
2007-08-26,0.54, 0.03, 14.71, 2.28, 1.67, 7.47, repro,
2007-08-27,0.63, -0.22, 5.55, 2.24, 1.63, 7.27, repro,
2007-08-28,1.57, -0.18, 7.98, 2.22, 1.61, 7.25, repro,
2007-08-29,1.76, 0.43, 3.53, 2.21, 1.61, 7.23, repro,
2007-08-30,0.68, -0.16, 13.88, 2.21, 1.61, 7.29, repro,
2007-08-31,0.42, -0.35, 8.96, 2.27, 1.65, 7.41, repro,
2007-09-01,0.59, -0.76, 10.20, 2.21, 1.60, 7.20, repro,
2007-09-02,-0.50, -0.62, 10.71, 2.21, 1.60, 7.20, repro,
2007-09-03,2.09, -0.76, 7.76, 2.22, 1.61, 7.26, repro,
2007-09-04,1.21, -2.27, -0.54, 2.52, 1.84, 8.34, repro,
2007-09-05,0.65, -0.20, 11.04, 2.20, 1.60, 7.15, repro,
2007-09-06,0.28, -0.19, 13.99, 2.23, 1.60, 7.25, repro,
2007-09-07,1.22, 0.65, 11.69, 2.21, 1.60, 7.18, repro,
2007-09-08,0.83, 0.34, 4.84, 2.32, 1.70, 7.65, repro,
2007-09-09,0.77, -0.55, 9.30, 2.29, 1.68, 7.53, repro,
2007-09-10,0.89, 0.06, 9.90, 2.22, 1.60, 7.20, repro,
2007-09-11,0.36, -0.28, 12.42, 2.20, 1.61, 7.20, repro,
2007-09-12,1.26, -0.48, 7.46, 2.25, 1.66, 7.46, repro,
2007-09-13,0.36, -0.53, 11.11, 2.28, 1.66, 7.51, repro,
2007-09-14,0.41, -1.07, 11.62, 2.27, 1.65, 7.49, repro,
2007-09-15,0.10, -1.64, 11.74, 2.30, 1.63, 7.48, repro,
2007-09-16,-0.24, -0.72, 12.97, 2.22, 1.61, 7.22, repro,
2007-09-17,0.91, 0.22, 13.93, 2.25, 1.65, 7.41, repro,
2007-09-18,1.08, -0.16, 7.24, 2.18, 1.62, 7.23, repro,
2007-09-19,0.03, -0.51, 11.69, 2.15, 1.56, 7.05, repro,
2007-09-20,1.21, 0.57, 11.42, 2.13, 1.53, 6.91, repro,
2007-09-21,1.73, 0.29, 10.38, 2.21, 1.58, 7.21, repro,
2007-09-22,-0.01, 0.51, 10.74, 2.16, 1.54, 6.99, repro,
2007-09-23,0.97, 1.02, 9.74, 2.21, 1.59, 7.15, repro,
2007-09-24,-0.20, 0.64, 9.57, 2.29, 1.62, 7.39, repro,
2007-09-25,-0.93, 0.96, 6.22, 2.23, 1.58, 7.24, repro,
2007-09-26,0.25, 0.30, 9.33, 2.26, 1.55, 7.13, repro,
2007-09-27,-0.35, 0.13, 9.26, 2.20, 1.57, 7.18, repro,
2007-09-28,1.40, -0.16, 8.73, 2.14, 1.58, 7.07, repro,
2007-09-29,-0.31, 0.11, 12.00, 2.22, 1.64, 7.28, repro,
2007-09-30,0.25, -0.22, 11.41, 2.32, 1.75, 7.71, repro,
2007-10-01,-0.43, -2.37, 13.56, 2.29, 1.67, 7.42, repro,
2007-10-02,-0.64, -1.16, 11.47, 2.33, 1.68, 7.60, repro,
2007-10-03,1.48, -2.30, 18.53, 2.19, 1.61, 7.33, repro,
2007-10-04,-1.28, -0.17, 14.59, 2.20, 1.61, 7.29, repro,
2007-10-05,0.17, 0.12, 16.36, 2.26, 1.70, 7.58, repro,
2007-10-06,0.74, 1.09, 10.81, 2.25, 1.64, 7.36, repro,
2007-10-07,-0.17, 0.39, 7.15, 2.28, 1.64, 7.36, repro,
2007-10-08,1.32, 0.91, 6.01, 2.47, 1.73, 7.92, repro,
2007-10-09,0.63, 0.96, 11.81, 2.42, 1.83, 8.10, repro,
2007-10-10,0.63, 0.50, 3.69, 2.38, 1.69, 7.72, repro,
2007-10-11,0.92, -0.17, 6.95, 2.22, 1.64, 7.31, repro,
2007-10-12,0.89, 0.50, 14.93, 2.29, 1.67, 7.46, repro,
2007-10-13,-0.09, -0.16, 11.19, 2.15, 1.57, 7.06, repro,
2007-10-14,0.66, 0.53, 8.18, 2.15, 1.57, 7.05, repro,
2007-10-15,-0.49, -0.16, 16.12, 2.15, 1.58, 7.10, repro,
2007-10-16,0.86, 0.40, 7.36, 2.17, 1.59, 7.12, repro,
2007-10-17,-1.46, -1.52, 12.17, 2.17, 1.58, 7.08, repro,
2007-10-18,1.67, 0.99, 20.89, 2.16, 1.58, 7.09, repro,
2007-10-19,0.88, -0.17, 16.02, 2.17, 1.58, 7.14, repro,
2007-10-20,-0.47, 1.16, 20.49, 2.17, 1.57, 7.11, repro,
2007-10-21,0.42, 1.37, 6.10, 2.16, 1.59, 7.12, repro,
2007-10-22,0.16, 1.28, 2.12, 2.15, 1.56, 7.10, repro,
2007-10-23,0.35, 2.44, 0.58, 2.24, 1.65, 7.38, repro,
2007-10-24,0.55, 1.44, 1.50, 2.27, 1.67, 7.53, repro,
2007-10-25,2.49, 0.00, -0.92, 2.16, 1.57, 7.11, repro,
2007-10-26,0.80, 0.60, 2.29, 2.19, 1.63, 7.28, repro,
2007-10-27,0.42, 0.90, 3.49, 2.14, 1.58, 7.03, repro,
2007-10-28,1.02, 1.47, -1.91, 2.17, 1.59, 7.19, repro,
2007-10-29,0.90, 0.56, 5.23, 2.15, 1.59, 7.13, repro,
2007-10-30,0.57, 1.24, 0.85, 2.20, 1.62, 7.32, repro,
2007-10-31,0.79, 1.76, -0.09, 2.15, 1.58, 7.09, repro,
2007-11-01,0.80, 1.57, 5.97, 2.10, 1.55, 6.92, repro,
2007-11-02,0.88, 1.67, 2.01, 2.10, 1.54, 6.87, repro,
2007-11-03,1.86, 0.87, 0.92, 2.12, 1.56, 7.01, repro,
2007-11-04,1.01, 0.94, 2.67, 2.11, 1.55, 6.93, repro,
2007-11-05,1.94, 1.12, 1.89, 2.13, 1.56, 6.97, repro,
2007-11-06,0.46, 0.85, -2.06, 2.20, 1.64, 7.43, repro,
2007-11-07,0.98, 0.41, 1.57, 2.10, 1.55, 6.91, repro,
2007-11-08,1.06, 1.55, 7.56, 2.17, 1.59, 7.13, repro,
2007-11-09,-0.01, 1.26, 4.23, 2.18, 1.60, 7.20, repro,
2007-11-10,1.76, -0.56, 5.16, 2.15, 1.57, 7.12, repro,
2007-11-11,1.95, 0.54, 0.72, 2.13, 1.55, 6.98, repro,
2007-11-12,-0.05, 0.55, 8.55, 2.13, 1.56, 7.05, repro,
2007-11-13,-0.08, 0.45, 3.47, 2.13, 1.56, 7.03, repro,
2007-11-14,1.05, 1.60, 0.64, 2.12, 1.55, 6.98, repro,
2007-11-15,3.07, -0.10, -2.23, 2.17, 1.58, 7.17, repro,
2007-11-16,1.37, -1.26, 6.77, 2.13, 1.56, 7.02, repro,
2007-11-17,-1.00, -0.30, 7.08, 2.15, 1.60, 7.16, repro,
2007-11-18,1.50, -0.53, 2.51, 2.10, 1.55, 6.94, repro,
2007-11-19,0.46, -0.41, 0.91, 2.11, 1.56, 6.97, repro,
2007-11-20,1.72, -0.62, -6.55, 2.12, 1.59, 7.07, repro,
2007-11-21,1.38, 0.85, -3.28, 2.14, 1.60, 7.13, repro,
2007-11-22,2.01, 0.39, -5.64, 2.12, 1.56, 6.99, repro,
2007-11-23,2.32, 0.41, 0.14, 2.15, 1.64, 7.30, repro,
2007-11-24,2.22, -0.82, -0.16, 2.19, 1.65, 7.24, repro,
2007-11-25,2.23, -0.15, 2.16, 2.21, 1.70, 7.37, repro,
2007-11-26,1.36, 0.85, -2.39, 2.21, 1.68, 7.39, repro,
2007-11-27,1.48, -0.07, -5.58, 2.19, 1.64, 7.23, repro,
2007-11-28,1.27, -0.14, -2.99, 2.13, 1.59, 7.08, repro,
2007-11-29,3.06, -1.50, 1.63, 2.15, 1.60, 7.16, repro,
2007-11-30,1.86, -0.55, -3.41, 2.20, 1.66, 7.29, repro,
2007-12-01,1.52, -0.71, 5.97, 2.26, 1.74, 7.68, repro,
2007-12-02,0.76, 0.00, 5.56, 2.20, 1.68, 7.50, repro,
2007-12-03,1.23, -1.00, 8.26, 2.32, 1.74, 7.78, repro,
2007-12-04,2.05, 0.82, -4.14, 2.27, 1.75, 7.80, repro,
2007-12-05,0.95, 0.64, -4.54, 2.30, 1.79, 7.83, repro,
2007-12-06,1.37, 0.07, -0.12, 2.37, 1.84, 8.12, repro,
2007-12-07,0.94, 0.35, 4.88, 2.31, 1.81, 7.90, repro,
2007-12-08,1.83, 0.21, 0.53, 2.19, 1.68, 7.32, repro,
2007-12-09,2.27, -0.61, 3.30, 2.53, 2.25, 9.08, repro,
2007-12-10,2.98, -0.04, -1.14, 2.22, 1.70, 7.38, repro,
2007-12-11,1.98, 0.62, -2.67, 2.24, 1.69, 7.41, repro,
2007-12-12,2.25, -1.11, -6.47, 2.26, 1.68, 7.41, repro,
2007-12-13,1.71, 0.29, -8.11, 2.26, 1.68, 7.38, repro,
2007-12-14,2.18, 0.18, -1.11, 2.17, 1.58, 7.09, repro,
2007-12-15,0.34, 0.01, 3.22, 2.19, 1.59, 7.14, repro,
2007-12-16,2.26, -0.04, 0.51, 2.23, 1.64, 7.27, repro,
2007-12-17,1.57, -0.90, 5.00, 2.22, 1.63, 7.20, repro,
2007-12-18,1.49, -0.47, 9.24, 2.19, 1.62, 7.20, repro,
2007-12-19,1.58, -0.92, 5.59, 2.19, 1.62, 7.23, repro,
2007-12-20,1.04, -0.18, 7.30, 2.17, 1.58, 7.11, repro,
2007-12-21,1.52, -0.07, -4.91, 2.25, 1.64, 7.36, repro,
2007-12-22,0.99, -0.39, -4.11, 2.21, 1.65, 7.38, repro,
2007-12-23,-0.19, 1.14, -4.59, 2.17, 1.63, 7.21, repro,
2007-12-24,2.41, -0.11, -1.31, 2.19, 1.61, 7.19, repro,
2007-12-25,3.14, 0.58, 0.21, 2.22, 1.61, 7.20, repro,
2007-12-26,1.61, -0.36, 0.76, 2.21, 1.61, 7.23, repro,
2007-12-27,2.37, 0.32, -1.49, 2.21, 1.59, 7.24, repro,
2007-12-28,-0.13, 0.42, 0.91, 2.22, 1.64, 7.34, repro,
2007-12-29,0.09, 0.75, 4.69, 2.22, 1.60, 7.24, repro,
2007-12-30,1.95, -0.46, 0.70, 2.23, 1.60, 7.28, repro,
2007-12-31,2.10, 0.70, -7.19, 2.20, 1.57, 7.15, repro,
2008-01-01,1.88, 0.98, -6.85, 2.20, 1.56, 7.16, repro,
2008-01-02,1.06, 1.03, -1.70, 2.15, 1.55, 7.00, repro,
2008-01-03,0.93, -0.22, 6.47, 2.14, 1.52, 6.94, repro,
2008-01-04,2.53, 0.59, 6.88, 2.15, 1.53, 6.98, repro,
2008-01-05,2.44, -0.71, 9.76, 2.15, 1.53, 6.98, repro,
2008-01-06,2.17, -0.97, 5.20, 2.22, 1.58, 7.19, repro,
2008-01-07,-0.87, -0.60, 2.79, 2.14, 1.53, 6.95, repro,
2008-01-08,0.39, 1.05, 4.33, 2.24, 1.59, 7.18, repro,
2008-01-09,0.34, 0.10, 1.18, 2.19, 1.56, 7.11, repro,
2008-01-10,-0.10, 1.12, 7.02, 2.15, 1.53, 6.96, repro,
2008-01-11,0.13, 0.14, -2.99, 2.14, 1.54, 6.95, repro,
2008-01-12,-0.28, 0.81, -3.07, 2.16, 1.54, 7.02, repro,
2008-01-13,1.16, 1.24, -10.37, 2.13, 1.54, 6.94, repro,
2008-01-14,0.59, 1.42, 2.04, 2.13, 1.54, 6.93, repro,
2008-01-15,1.05, 0.30, -6.34, 2.14, 1.54, 6.93, repro,
2008-01-16,1.57, 1.44, -7.60, 2.17, 1.55, 7.05, repro,
2008-01-17,0.78, 1.60, -5.74, 2.20, 1.56, 7.14, repro,
2008-01-18,1.31, 1.49, -3.79, 2.14, 1.58, 7.09, repro,
2008-01-19,3.12, 0.59, -6.81, 2.12, 1.54, 6.93, repro,
2008-01-20,1.13, 1.83, -1.80, 2.12, 1.55, 6.96, repro,
2008-01-21,1.28, 1.13, 1.67, 2.12, 1.53, 6.90, repro,
2008-01-22,1.49, 2.31, -4.19, 2.13, 1.53, 6.92, repro,
2008-01-23,1.92, 2.69, -1.87, 2.14, 1.54, 6.97, repro,
2008-01-24,1.04, 2.15, 4.10, 2.12, 1.54, 6.97, repro,
2008-01-25,1.82, 1.54, 3.71, 2.11, 1.54, 6.91, repro,
2008-01-26,0.08, 1.79, 5.32, 2.12, 1.53, 6.91, repro,
2008-01-27,1.83, 1.45, 7.62, 2.11, 1.53, 6.88, repro,
2008-01-28,2.11, 0.20, 5.81, 2.14, 1.54, 6.95, repro,
2008-01-29,0.07, -0.19, 5.39, 2.23, 1.66, 7.40, repro,
2008-01-30,1.18, 2.76, -5.70, 2.24, 1.61, 7.25, repro,
2008-01-31,0.87, 1.34, -2.68, 2.12, 1.55, 6.93, repro,
2008-02-01,0.43, 2.07, -6.95, 2.11, 1.53, 6.85, repro,
2008-02-02,1.25, 1.04, -1.34, 2.12, 1.54, 6.93, repro,
2008-02-03,1.56, 1.05, -1.47, 2.12, 1.53, 6.93, repro,
2008-02-04,2.16, 2.55, -4.74, 2.11, 1.54, 6.95, repro,
2008-02-05,0.07, 2.91, 0.22, 2.17, 1.62, 7.19, repro,
2008-02-06,-0.53, 1.49, 3.30, 2.17, 1.62, 7.17, repro,
2008-02-07,1.33, 2.51, 0.51, 2.17, 1.58, 7.17, repro,
2008-02-08,-0.35, 1.33, -6.17, 2.12, 1.54, 6.93, repro,
2008-02-09,0.65, 3.19, -5.59, 2.16, 1.59, 7.06, repro,
2008-02-10,-0.74, 1.98, -7.88, 2.11, 1.54, 6.91, repro,
2008-02-11,1.79, 2.31, -6.20, 2.13, 1.56, 6.99, repro,
2008-02-12,0.93, 2.71, -3.33, 2.12, 1.54, 6.93, repro,
2008-02-13,2.15, 1.29, -1.24, 2.12, 1.54, 6.92, repro,
2008-02-14,1.01, 2.72, -8.96, 2.12, 1.54, 6.90, repro,
2008-02-15,2.22, 2.65, -9.36, 2.13, 1.58, 7.07, repro,
2008-02-16,1.92, 2.12, -4.80, 2.13, 1.56, 6.98, repro,
2008-02-17,1.35, 2.65, -3.73, 2.12, 1.55, 6.96, repro,
2008-02-18,1.03, 2.40, -4.93, 2.11, 1.54, 6.90, repro,
2008-02-19,0.33, 2.82, -3.31, 2.11, 1.53, 6.87, repro,
2008-02-20,1.55, 2.49, 1.46, 2.12, 1.54, 6.93, repro,
2008-02-21,0.73, 2.24, 0.85, 2.11, 1.54, 6.91, repro,
2008-02-22,1.48, 1.00, 6.28, 2.13, 1.55, 6.96, repro,
2008-02-23,0.55, 2.39, -0.55, 2.12, 1.55, 6.91, repro,
2008-02-24,-0.01, 2.57, 7.25, 2.11, 1.55, 6.97, repro,
2008-02-25,0.49, 2.00, -4.95, 2.11, 1.54, 6.89, repro,
2008-02-26,1.78, 2.31, -8.96, 2.11, 1.53, 6.88, repro,
2008-02-27,1.63, 2.88, -5.86, 2.14, 1.56, 7.05, repro,
2008-02-28,0.62, 2.26, -3.09, 2.13, 1.54, 6.95, repro,
2008-02-29,0.21, 0.87, 2.76, 2.12, 1.55, 6.93, repro,
2008-03-01,0.57, 1.69, -1.10, 2.14, 1.56, 7.03, repro,
2008-03-02,0.25, 3.75, -12.37, 2.11, 1.53, 6.88, repro,
2008-03-03,-0.37, 2.73, -10.09, 2.13, 1.54, 6.91, repro,
2008-03-04,1.72, 2.45, -4.67, 2.13, 1.54, 6.92, repro,
2008-03-05,1.79, 2.63, -5.99, 2.21, 1.66, 7.39, repro,
2008-03-06,0.07, 2.20, -5.75, 2.14, 1.55, 7.03, repro,
2008-03-07,0.25, 2.27, -7.75, 2.12, 1.53, 6.94, repro,
2008-03-08,1.81, 2.76, -2.67, 2.15, 1.59, 7.14, repro,
2008-03-09,-0.35, 2.44, -5.60, 2.12, 1.54, 6.90, repro,
2008-03-10,1.24, 2.57, -8.79, 2.14, 1.55, 6.98, repro,
2008-03-11,-0.31, 1.44, -7.38, 2.12, 1.54, 6.92, repro,
2008-03-12,1.01, 2.53, -8.54, 2.17, 1.60, 7.19, repro,
2008-03-13,1.01, 0.83, 4.19, 2.15, 1.59, 7.14, repro,
2008-03-14,0.30, 1.10, 1.94, 2.15, 1.58, 7.10, repro,
2008-03-15,-0.10, 1.76, -3.58, 2.12, 1.54, 6.92, repro,
2008-03-16,1.40, 2.28, -2.79, 2.16, 1.58, 7.06, repro,
2008-03-17,1.64, 3.03, -8.15, 2.27, 1.71, 7.64, repro,
2008-03-18,-0.54, 1.43, -0.78, 2.20, 1.62, 7.32, repro,
2008-03-19,1.31, 2.23, -8.26, 2.15, 1.56, 7.03, repro,
2008-03-20,-0.19, 1.82, -4.29, 2.16, 1.57, 7.09, repro,
2008-03-21,1.94, 2.47, -10.32, 2.17, 1.57, 7.11, repro,
2008-03-22,2.10, 2.41, -11.03, 2.16, 1.57, 7.08, repro,
2008-03-23,0.26, 1.88, -9.10, 2.16, 1.58, 7.12, repro,
2008-03-24,1.76, 1.30, -4.93, 2.21, 1.61, 7.29, repro,
2008-03-25,0.93, 1.64, -0.55, 2.19, 1.61, 7.23, repro,
2008-03-26,0.11, 1.84, -4.92, 2.19, 1.62, 7.24, repro,
2008-03-27,1.97, 2.01, -12.09, 2.20, 1.62, 7.25, repro,
2008-03-28,1.08, 0.82, -0.50, 2.22, 1.64, 7.27, repro,
2008-03-29,1.24, 1.64, -2.06, 2.15, 1.54, 6.97, repro,
2008-03-30,2.15, 1.20, -3.55, 2.14, 1.53, 6.96, repro,
2008-03-31,1.71, 2.39, -6.78, 2.16, 1.55, 7.04, repro,
2008-04-01,1.85, 2.65, -5.76, 2.16, 1.55, 7.05, repro,
2008-04-02,1.88, 2.86, -4.38, 2.21, 1.57, 7.14, repro,
2008-04-03,1.57, 2.24, -3.52, 2.15, 1.55, 7.03, repro,
2008-04-04,1.30, 1.70, -2.67, 2.14, 1.53, 6.99, repro,
2008-04-05,0.71, 1.55, -3.64, 2.16, 1.55, 7.07, repro,
2008-04-06,-0.45, 0.92, -2.53, 2.21, 1.59, 7.19, repro,
2008-04-07,-0.54, 0.87, -6.81, 2.16, 1.55, 7.05, repro,
2008-04-08,1.99, 1.80, -4.15, 2.15, 1.55, 7.03, repro,
2008-04-09,2.00, 1.66, -3.95, 2.13, 1.52, 6.93, repro,
2008-04-10,2.01, 1.64, -2.28, 2.15, 1.53, 6.99, repro,
2008-04-11,1.56, 2.01, -8.46, 2.15, 1.54, 7.04, repro,
2008-04-12,1.51, 2.74, -6.22, 2.18, 1.55, 7.13, repro,
2008-04-13,0.66, 2.52, -2.52, 2.16, 1.56, 7.11, repro,
2008-04-14,1.74, 2.27, -0.84, 2.15, 1.54, 7.02, repro,
2008-04-15,2.93, 2.53, 1.78, 2.18, 1.59, 7.12, repro,
2008-04-16,1.84, 1.79, -1.17, 2.18, 1.59, 7.13, repro,
2008-04-17,1.78, 2.26, -6.05, 2.16, 1.55, 7.11, repro,
2008-04-18,0.97, 2.75, -5.19, 2.17, 1.55, 7.10, repro,
2008-04-19,0.41, 2.61, -1.55, 2.17, 1.55, 7.11, repro,
2008-04-20,1.09, 2.88, -1.72, 2.15, 1.53, 7.01, repro,
2008-04-21,0.45, 1.59, -5.15, 2.15, 1.53, 7.02, repro,
2008-04-22,1.09, 2.33, -3.11, 2.16, 1.53, 7.05, repro,
2008-04-23,0.56, 0.41, -2.22, 2.24, 1.62, 7.35, repro,
2008-04-24,1.58, 2.16, -7.78, 2.17, 1.56, 7.14, repro,
2008-04-25,2.12, 2.34, -7.24, 2.17, 1.54, 7.10, repro,
2008-04-26,1.40, 2.56, -12.84, 2.24, 1.56, 7.16, repro,
2008-04-27,2.35, 2.66, -6.56, 2.26, 1.57, 7.23, repro,
2008-04-28,0.15, 2.40, -3.13, 2.26, 1.57, 7.23, repro,
2008-04-29,1.48, 1.49, 1.00, 2.42, 1.68, 7.77, repro,
2008-04-30,0.84, 2.16, -1.91, 2.22, 1.59, 7.30, repro,
2008-05-01,0.94, 3.18, -9.35, 2.23, 1.59, 7.28, repro,
2008-05-02,2.06, 3.07, -0.94, 2.23, 1.61, 7.34, repro,
2008-05-03,1.75, 1.64, -1.68, 2.17, 1.54, 7.13, repro,
2008-05-04,2.23, 3.18, 0.53, 2.16, 1.54, 7.08, repro,
2008-05-05,1.97, 3.05, -6.86, 2.20, 1.58, 7.22, repro,
2008-05-06,-0.34, 1.37, -7.43, 2.23, 1.59, 7.30, repro,
2008-05-07,1.57, 1.62, -1.72, 2.18, 1.53, 7.09, repro,
2008-05-08,1.26, 1.61, 2.52, 2.27, 1.64, 7.72, repro,
2008-05-09,1.05, 2.54, -4.87, 2.18, 1.55, 7.16, repro,
2008-05-10,1.36, 2.10, -5.06, 2.17, 1.54, 7.11, repro,
2008-05-11,1.31, 1.49, -0.11, 2.19, 1.56, 7.20, repro,
2008-05-12,0.26, 2.99, -1.04, 2.21, 1.57, 7.13, repro,
2008-05-13,0.96, 2.32, 1.83, 2.17, 1.51, 6.96, repro,
2008-05-14,1.61, 2.08, 0.72, 2.16, 1.51, 6.98, repro,
2008-05-15,1.84, 2.95, -11.55, 2.16, 1.51, 6.97, repro,
2008-05-16,1.15, 2.81, -3.61, 2.16, 1.52, 6.98, repro,
2008-05-17,-0.06, 2.67, -2.01, 2.19, 1.54, 7.11, repro,
2008-05-18,0.21, 3.17, -0.89, 2.22, 1.57, 7.15, repro,
2008-05-19,0.49, 1.99, 2.75, 2.21, 1.56, 7.12, repro,
2008-05-20,0.40, 1.95, 3.42, 2.18, 1.53, 7.11, repro,
2008-05-21,0.73, 2.23, 3.62, 2.16, 1.52, 7.02, repro,
2008-05-22,1.70, 1.66, -3.26, 2.17, 1.56, 7.16, repro,
2008-05-23,1.26, 1.05, 2.09, 2.19, 1.56, 7.22, repro,
2008-05-24,0.07, 0.41, -0.57, 2.16, 1.52, 7.00, repro,
2008-05-25,-0.20, 1.17, 1.03, 2.15, 1.52, 6.99, repro,
2008-05-26,1.33, 1.39, 4.48, 2.17, 1.56, 7.12, repro,
2008-05-27,1.02, 1.18, -1.49, 2.15, 1.52, 6.97, repro,
2008-05-28,2.04, 0.20, -1.21, 2.16, 1.52, 7.00, repro,
2008-05-29,0.83, 0.12, -1.42, 2.21, 1.57, 7.18, repro,
2008-05-30,1.99, 0.82, -2.67, 2.15, 1.52, 7.00, repro,
2008-05-31,1.80, 1.46, -5.69, 2.15, 1.52, 6.97, repro,
2008-06-01,1.72, 0.41, -1.91, 2.15, 1.52, 6.99, repro,
2008-06-02,1.58, 0.21, -4.05, 2.15, 1.52, 6.98, repro,
2008-06-03,1.13, -0.11, -9.10, 2.22, 1.57, 7.21, repro,
2008-06-04,0.94, -0.61, 3.45, 2.15, 1.54, 7.06, repro,
2008-06-05,1.51, -0.51, -2.50, 2.16, 1.53, 7.06, repro,
2008-06-06,0.09, -2.12, -6.40, 2.20, 1.56, 7.11, repro,
2008-06-07,0.83, -0.33, -2.06, 2.23, 1.60, 7.28, repro,
2008-06-08,1.44, 0.15, -9.35, 2.21, 1.56, 7.15, repro,
2008-06-09,0.29, -0.53, -2.18, 2.22, 1.58, 7.25, repro,
2008-06-10,-0.21, -0.34, -2.67, 2.19, 1.59, 7.25, repro,
2008-06-11,0.28, -0.62, -3.08, 2.14, 1.52, 6.98, repro,
2008-06-12,0.65, -0.25, -5.72, 2.17, 1.54, 7.09, repro,
2008-06-13,0.88, 0.49, -6.60, 2.16, 1.53, 7.05, repro,
2008-06-14,1.80, 0.15, -7.16, 2.22, 1.57, 7.20, repro,
2008-06-15,1.20, -0.39, -5.66, 2.22, 1.58, 7.27, repro,
2008-06-16,1.30, -0.91, -3.98, 2.14, 1.52, 7.02, repro,
2008-06-17,0.14, -1.12, -6.32, 2.16, 1.51, 6.99, repro,
2008-06-18,0.88, -0.48, -7.40, 2.15, 1.52, 7.01, repro,
2008-06-19,1.82, -0.38, -6.47, 2.25, 1.63, 7.51, repro,
2008-06-20,0.47, -0.55, -1.89, 2.16, 1.53, 7.04, repro,
2008-06-21,0.62, -2.22, -7.38, 2.23, 1.58, 7.29, repro,
2008-06-22,0.19, -1.33, -11.26, 2.20, 1.60, 7.22, repro,
2008-06-23,0.68, -1.18, 1.99, 2.15, 1.52, 6.99, repro,
2008-06-24,0.07, -0.02, -10.12, 2.18, 1.53, 7.03, repro,
2008-06-25,-0.15, 0.18, 0.32, 2.18, 1.52, 7.04, repro,
2008-06-26,2.96, -1.74, -3.11, 2.18, 1.57, 7.18, repro,
2008-06-27,1.74, -0.28, 1.15, 2.14, 1.52, 6.98, repro,
2008-06-28,1.10, -1.56, 1.14, 2.15, 1.52, 6.97, repro,
2008-06-29,1.29, -1.53, -2.01, 2.29, 1.62, 7.31, repro,
2008-06-30,3.69, 0.16, -7.94, 2.27, 1.60, 7.29, repro,
2008-07-01,1.89, -0.36, -2.10, 2.16, 1.53, 7.02, repro,
2008-07-02,1.76, -1.58, -1.10, 2.14, 1.52, 6.99, repro,
2008-07-03,3.02, -0.37, 10.06, 2.17, 1.53, 7.06, repro,
2008-07-04,1.99, -1.00, 1.28, 2.15, 1.52, 6.97, repro,
2008-07-05,1.71, -0.54, -1.62, 2.16, 1.52, 7.01, repro,
2008-07-06,0.48, -1.00, 5.20, 2.17, 1.52, 7.00, repro,
2008-07-07,1.07, -0.47, 1.96, 2.20, 1.57, 7.16, repro,
2008-07-08,0.48, -0.74, 0.57, 2.15, 1.53, 7.01, repro,
2008-07-09,0.99, -1.14, 5.40, 2.16, 1.52, 6.99, repro,
2008-07-10,2.20, -0.63, 6.54, 2.22, 1.57, 7.17, repro,
2008-07-11,-0.19, -1.37, 4.64, 2.25, 1.58, 7.25, repro,
2008-07-12,0.94, -0.77, 3.93, 2.18, 1.52, 7.02, repro,
2008-07-13,2.17, -1.38, 0.56, 2.20, 1.58, 7.25, repro,
2008-07-14,1.17, -0.89, 8.52, 2.18, 1.52, 7.05, repro,
2008-07-15,0.91, -0.92, 2.32, 2.17, 1.52, 6.99, repro,
2008-07-16,0.74, -0.96, -0.03, 2.16, 1.52, 7.01, repro,
2008-07-17,1.35, -1.39, 2.88, 2.15, 1.51, 6.95, repro,
2008-07-18,0.18, -0.33, 5.24, 2.28, 1.57, 7.29, repro,
2008-07-19,1.10, -0.86, 1.60, 2.27, 1.56, 7.27, repro,
2008-07-20,1.16, -1.28, 3.16, 2.15, 1.51, 6.95, repro,
2008-07-21,0.96, -0.02, 5.10, 2.17, 1.54, 7.02, repro,
2008-07-22,-0.16, 0.35, 4.09, 2.16, 1.53, 7.00, repro,
2008-07-23,0.89, -0.15, 6.96, 2.20, 1.53, 7.06, repro,
2008-07-24,0.97, -0.68, 4.91, 2.15, 1.52, 6.97, repro,
2008-07-25,0.90, -1.14, 4.39, 2.16, 1.52, 6.98, repro,
2008-07-26,1.57, -1.46, 7.63, 2.18, 1.52, 7.01, repro,
2008-07-27,0.51, -0.85, 8.77, 2.15, 1.52, 7.00, repro,
2008-07-28,1.59, -0.31, 7.07, 2.24, 1.57, 7.16, repro,
2008-07-29,0.23, -1.15, 16.13, 2.22, 1.54, 7.22, repro,
2008-07-30,0.09, -0.61, 9.27, 2.20, 1.52, 7.14, repro,
2008-07-31,-1.58, -0.54, 8.68, 2.16, 1.52, 7.01, repro,
2008-08-01,1.92, -0.03, 8.67, 2.17, 1.52, 7.00, repro,
2008-08-02,1.88, -0.35, 13.91, 2.16, 1.52, 7.00, repro,
2008-08-03,1.24, -0.68, 7.26, 2.18, 1.55, 7.11, repro,
2008-08-04,1.00, -1.43, 8.23, 2.13, 1.52, 6.92, repro,
2008-08-05,1.75, -0.85, 6.22, 2.14, 1.51, 6.91, repro,
2008-08-06,1.20, -2.08, 11.54, 2.22, 1.54, 7.15, repro,
2008-08-07,1.80, -0.11, 9.42, 2.26, 1.59, 7.30, repro,
2008-08-08,-0.12, -2.29, 9.56, 2.27, 1.59, 7.30, repro,
2008-08-09,0.73, 0.42, 9.92, 2.21, 1.55, 7.15, repro,
2008-08-10,0.85, -0.72, 0.31, 2.18, 1.52, 7.00, repro,
2008-08-11,1.45, -1.00, -1.88, 2.20, 1.53, 7.01, repro,
2008-08-12,1.05, -0.65, 7.50, 2.21, 1.53, 7.09, repro,
2008-08-13,0.17, -0.74, 12.93, 2.22, 1.54, 7.16, repro,
2008-08-14,0.11, -0.90, 10.62, 2.22, 1.54, 7.17, repro,
2008-08-15,-0.13, -0.52, 6.99, 2.21, 1.54, 7.17, repro,
2008-08-16,0.46, -0.66, 5.14, 2.20, 1.53, 7.06, repro,
2008-08-17,0.98, -0.69, 17.01, 2.29, 1.60, 7.34, repro,
2008-08-18,0.20, -2.33, 15.05, 2.25, 1.56, 7.29, repro,
2008-08-19,0.55, -1.15, 18.36, 2.23, 1.55, 7.18, repro,
2008-08-20,0.22, -0.83, 12.86, 2.23, 1.54, 7.21, repro,
2008-08-21,-0.85, -0.74, 4.38, 2.28, 1.58, 7.31, repro,
2008-08-22,1.70, -1.60, 8.09, 2.21, 1.53, 7.04, repro,
2008-08-23,1.70, -2.29, 9.37, 2.23, 1.54, 7.18, repro,
2008-08-24,1.18, 0.53, 7.58, 2.26, 1.57, 7.32, repro,
2008-08-25,0.82, -2.11, 12.88, 2.29, 1.58, 7.33, repro,
2008-08-26,0.64, -1.36, 9.25, 2.28, 1.58, 7.33, repro,
2008-08-27,1.53, -1.73, 7.86, 2.23, 1.57, 7.23, repro,